Weather History for KMFI - March, 2013

Change the Weather History Date:

Friday, March 8, 2013

  Actual Average Record
Temperature  
Mean Temperature 26 °F -  
Max Temperature 37 °F 36 °F 67 °F (1987)
Min Temperature 14 °F 16 °F -15 °F (1967)
Degree Days  
Heating Degree Days 40    
Moisture  
Dew Point 18 °F    
Average Humidity 73    
Maximum Humidity 92    
Minimum Humidity 53    
Precipitation  
Precipitation 0.00 in - - ()
Sea Level Pressure  
Sea Level Pressure 30.38 in    
Wind  
Wind Speed 6 mph (SE)    
Max Wind Speed 12 mph    
Max Gust Speed -    
Visibility 9 miles    
Events      
Averages and records for this station are not official NWS values.
T = Trace of Precipitation, MM = Missing Value Source: NWS Daily Summary

Daily Weather History Graph

Daily Weather History Graph

Search for Another Location

Airport or City:

Trip Planner

Search our weather history database for the weather conditions in past years. The results will help you decide how hot, cold, wet, or windy it might be!

Date:

Astronomy

Mar. 08, 2013 Rise Set
Actual Time 6:25 AM CST 5:58 PM CST
Civil Twilight 5:56 AM CST 6:27 PM CST
Nautical Twilight 5:22 AM CST 7:01 PM CST
Astronomical Twilight 4:48 AM CST 7:35 PM CST
Moon 4:16 AM CST (3/8) 2:47 PM CST (3/8)
Length of Visible Light 12h 30m
Length of Day
11h 32m
Waning Crescent, 11% of the Moon is Illuminated
Mar 8
Waning Crescent
Mar 11
New
Mar 19
First Quarter
Mar 27
Full
Apr 2
Last Quarter

Hourly Weather History & Observations

Time (CST) Temp. Windchill Dew Point Humidity Pressure Visibility Wind Dir Wind Speed Gust Speed Precip Events Conditions
12:54 AM 17.1 °F 10.0 °F 10.9 °F 77% 30.45 in 10.0 mi SE 4.6 mph - N/A   Clear
1:54 AM 16.0 °F 10.4 °F 10.9 °F 81% 30.45 in 10.0 mi SSE 3.5 mph - N/A   Clear
2:54 AM 16.0 °F 8.8 °F 10.9 °F 81% 30.45 in 9.0 mi SE 4.6 mph - N/A   Clear
3:54 AM 16.0 °F 7.4 °F 12.9 °F 88% 30.44 in 9.0 mi SE 5.8 mph - N/A   Clear
4:54 AM 17.1 °F 8.7 °F 14.0 °F 88% 30.44 in 8.0 mi SSE 5.8 mph - N/A   Clear
5:54 AM 16.0 °F 8.8 °F 12.9 °F 88% 30.45 in 8.0 mi ESE 4.6 mph - N/A   Clear
6:54 AM 14.0 °F 6.5 °F 12.0 °F 92% 30.45 in 4.0 mi ESE 4.6 mph - N/A   Clear
7:54 AM 16.0 °F 8.8 °F 14.0 °F 92% 30.45 in 6.0 mi ESE 4.6 mph - N/A   Clear
8:54 AM 21.9 °F 12.5 °F 17.1 °F 82% 30.44 in 9.0 mi SSE 8.1 mph - N/A   Clear
9:54 AM 26.1 °F 16.8 °F 19.9 °F 78% 30.43 in 10.0 mi SSE 9.2 mph - N/A   Clear
11:54 AM 32.0 °F 23.0 °F 21.9 °F 66% 30.41 in 10.0 mi SSE 11.5 mph - N/A   Clear
12:54 PM 34.0 °F 27.2 °F 23.0 °F 64% 30.38 in 10.0 mi SSE 8.1 mph - N/A   Clear
1:54 PM 36.0 °F 29.0 °F 21.9 °F 57% 30.36 in 10.0 mi SE 9.2 mph - N/A   Clear
2:54 PM 37.0 °F 29.3 °F 23.0 °F 57% 30.35 in 10.0 mi SSE 11.5 mph - N/A   Clear
3:54 PM 37.9 °F 31.5 °F 21.9 °F 53% 30.33 in 10.0 mi South 9.2 mph - N/A   Clear
4:54 PM 37.0 °F 32.4 °F 23.0 °F 57% 30.33 in 10.0 mi SE 5.8 mph - N/A   Clear
5:54 PM 36.0 °F 30.3 °F 21.9 °F 57% 30.34 in 10.0 mi SE 6.9 mph - N/A   Clear
6:54 PM 34.0 °F 28.0 °F 21.9 °F 61% 30.34 in 10.0 mi SSE 6.9 mph - N/A   Clear
7:54 PM 30.9 °F 25.2 °F 21.9 °F 69% 30.32 in 10.0 mi SE 5.8 mph - N/A   Clear
8:54 PM 30.9 °F 23.5 °F 21.9 °F 69% 30.30 in 10.0 mi SSE 8.1 mph - N/A   Clear
9:54 PM 28.9 °F 20.4 °F 21.9 °F 75% 30.29 in 8.0 mi SSE 9.2 mph - N/A   Clear
10:54 PM 28.9 °F 19.8 °F 21.9 °F 75% 30.27 in 9.0 mi SSE 10.4 mph - N/A   Clear
11:54 PM 28.9 °F 20.4 °F 21.9 °F 75% 30.25 in 9.0 mi SSE 9.2 mph - N/A   Clear